Regional Weather Roundup
Issued by NWS

Home | Current Version | Previous Version | Text Only | Print | Product List | Glossary On
Versions: 1 2 3 4 5 6 7 8 9 10 11 12 13 14 15 16 17 18 19 20 21 22 23 24 25 26 27 28 29 30 31 32 33 34 35 36 37 38 39 40 41 42 43 44 45 46 47 48 49 50
000
ASUS44 KEWX 020203
RWRTX
SOUTH TEXAS REGIONAL WEATHER ROUNDUP
NATIONAL WEATHER SERVICE AUSTIN/SAN ANTONIO TX
900 PM CDT TUE SEP 01 2015

NOTE: "FAIR" INDICATED FEW OR NO CLOUDS BELOW 12,000 FEET WITH NO
SIGNIFICANT WEATHER AND/OR OBSTRUCTIONS TO VISIBILITY.

* - THESE STATIONS ARE NOT NWS OR FAA STATIONS...AND ARE NOT SUBJECT
    TO NWS AND FAA QUALITY CONTROL.

TXZ171-172-183>190-020300-
TEXAS HILL COUNTRY AND EDWARDS PLATEAU

CITY           SKY/WX    TMP DP  RH WIND       PRES   REMARKS
JUNCTION       CLEAR     84  62  47 SE5       29.99R
*LLANO         CLEAR     86  64  48 SE6       30.01R
BURNET         CLEAR     82  65  56 SE12      30.04R
*HORSESHOE BAY CLEAR     82  65  57 SE9       30.00R
*KERRVILLE     PTCLDY    82  66  60 SE8       30.02R
*FREDERICKSBRG PTCLDY    83  62  50 SE8       30.01R
*ROCKSPRINGS   CLEAR     82  61  47 CALM      30.04R
*BOERNE STAGE  CLEAR     79  64  61 SE14G21   30.03R
*CASTROVILLE   CLEAR     83  65  54 SE9       29.99R
HONDO          CLEAR     83  68  60 SE17      29.99R
*UVALDE        CLEAR     87  65  48 SE16G22   29.95R
DEL RIO        CLEAR     89  59  36 E6        29.91R
LAUGHLIN AFB   CLEAR     87  60  40 SE7       29.93R
CARRIZO SPRGS  PTCLDY    84  68  58 SE18G26   29.92R
*EAGLE PASS    CLEAR     86  59  39 E5        29.92R
$$

TXZ173-191>194-202-209-217>225-228-020300-
CENTRAL AND SOUTH CENTRAL TEXAS

CITY           SKY/WX    TMP DP  RH WIND       PRES   REMARKS
GEORGETOWN     CLEAR     82  64  54 SE7       30.02R
AUSTIN/BERGSTM PTCLDY    81  65  58 SE10      30.00R
AUSTIN/MABRY   CLEAR     83  63  50 SE8       30.01R
*AUSTIN/EXEC   CLEAR     81  66  61 SE8       30.00R
*LAGO VISTA    CLEAR     82  63  52 SE12      30.03R
SAN MARCOS     CLEAR     81  66  61 SE10      30.02R
NEW BRAUNFELS  CLEAR     82  66  58 SE13      29.99R
RANDOLPH AFB   CLEAR     79  67  66 SE9       30.00R
PT SAN ANTONIO CLEAR     83  67  58 SE18G24   29.97R
SAN ANTONIO    PTCLDY    83  67  58 SE20G26   29.99R
STINSON FIELD  CLEAR     83  67  58 SE17      29.97R
*PLEASANTON    CLEAR     82  65  56 E10G17    29.97R
*LA GRANGE     CLEAR     80  73  78 SE5       30.00R
*GIDDINGS      CLEAR     78  67  70 SE6       30.05R
*GONZALES      CLEAR     81  68  65 SE10      29.99R
$$

TXZ163>164-176>182-195>201-210>213-226-227-235-020300-
SOUTHEAST TEXAS

CITY           SKY/WX    TMP DP  RH WIND       PRES   REMARKS
COLLEGE STN    CLEAR     78  69  73 SE6       30.02R
*BRYAN         CLEAR     75  69  79 SE5       30.03R
*CALDWELL      CLEAR     77  72  83 E5        30.04R
*CROCKETT      CLEAR     77  68  73 SE5       30.06S
*BRENHAM       CLEAR     79  71  77 SE6       30.02R
HUNTSVILLE     PTCLDY    78  69  73 CALM      30.04R
CONROE         MOCLDY    74  69  85 CALM      30.03S
HOUSTON BUSH   CLOUDY    75  71  87 SE5       30.02S
HOUSTON HOBBY  CLOUDY    77  72  84 E3        30.01R
*HOUSTON SW AP CLOUDY    75  72  88 NE3       30.03R
PEARLAND       CLOUDY    77  73  87 E5        30.02S
HOUSTON HOOKS  CLOUDY    77  70  79 SE3       30.02R
ELLINGTON FLD  MOCLDY    77  73  88 NE5       30.02R
SUGAR LAND     CLOUDY    78  72  81 E7        30.01R
*HOUSTON EXEC  CLOUDY    77  72  83 SE7       30.03R
*CLEVELAND MUN CLOUDY    73  73  99 CALM      30.04R
*WHARTON       CLEAR     75  70  86 E5        30.01S
*COLUMBUS      FAIR      76  72  85 E6        30.01R
*EAGLE LAKE    CLEAR     77  73  86 SE6       30.01R
$$

TXZ214>216-236>238-020300-
THE UPPER TEXAS COAST

CITY           SKY/WX    TMP DP  RH WIND       PRES   REMARKS
*ORANGE        CLOUDY   N/A N/A N/A CALM      30.04S
PORT ARTHUR    CLOUDY    77  74  90 NE5       30.01S
GALVESTON      CLOUDY    80  71  74 E7        30.02R
ANGLETON       MOCLDY    78  73  84 NE3       30.01R
*BAY CITY      CLEAR     76  75  99 CALM      30.00R
PALACIOS       CLEAR     77  73  87 NE5       29.99S
$$

TXZ229>234-239>247-020300-
TEXAS COASTAL BEND AND RIO GRANDE PLAINS

CITY           SKY/WX    TMP DP  RH WIND       PRES   REMARKS
VICTORIA       CLEAR     76  71  85 E6        30.00R
*BEEVILLE      CLEAR     78  73  86 E6        29.98R
ROCKPORT       PTCLDY    81  72  74 SE9       29.97S
*PORT ARANSAS  CLEAR     81  73  77 SE8       29.97R
*PORT LAVACA   MOCLDY    77  72  84 E7        29.99S
*INGLESIDE     MOCLDY    82  73  76 SE12      29.96S
CORPUS CHRISTI PTCLDY    80  73  79 SE10      29.96S
CORPUS NAS     PTCLDY    79  73  82 SE8       29.96S
*ROBSTOWN      CLEAR     80  75  85 SE9       29.97S
ALICE          CLEAR     78  73  84 SE7       29.96R
KINGSVILLE NAS PTCLDY    79  76  90 E8        29.96S
COTULLA        PTCLDY    84  69  60 SE18G25   29.95R
*FAITH RANCH     N/A     90  64  43 SE16G24   29.93R HX  91
LAREDO         CLEAR     83  71  66 E17       29.96R
$$

TXZ248>255-020300-
DEEP SOUTH TEXAS

CITY           SKY/WX    TMP DP  RH WIND       PRES   REMARKS
BROWNSVILLE    PTCLDY    80  75  84 E9        29.95R
PORT ISABEL    MOCLDY    83  76  79 E10       29.95R HX  91
*SOUTH PADRE   MOCLDY    82  75  78 E17       29.95R
HARLINGEN      MOCLDY    80  76  87 E8        29.94R
*HEBBRONVILLE  NOT AVBL
MCALLEN        MOCLDY    84  75  74 E10       29.95R HX  92
*WESLACO       MOCLDY    81  74  79 SE7       29.93R
FALFURRIAS     CLEAR     81  74  80 E7        29.95R
EDINBURG       PTCLDY    79  73  83 E3        29.94S
*ZAPATA        PTCLDY    82  68  63 E9        29.94R
$$

TXZ213>215-236>238-242>244-246-247-251-254-255-020300-
CMAN STATIONS

STATION/POSITION TIME  TEMP    WIND        PRES    WAVE
                       AIR SEA DIR/SP/G            HT/PER
                 (UTC) (F)     (DEG/KT/KT) (MB)    (FT/S)
$$

GMZ080-GMZ150>470-020300-
OFFSHORE BUOY REPORTS

STATION/POSITION TIME  TEMP    WIND        PRES    WAVE
                       AIR SEA DIR/SP/G            HT/PER
                 (UTC) (F)     (DEG/KT/KT) (MB)    (FT/S)
$$



USA.gov is the U.S. government's official web portal to all federal, state and local government web resources and services.